Location: Saint-Palais-sur-Mer
(45.6429°N, 1.0859°W)
Time: 08:24:08
(UTC+01:00)

Transit 2A - Visible Passes

Search period start: 15 February 2026 00:00
Search period end: 25 February 2026 00:00
Orbit: 589 x 955 km, 66.7° (Epoch: 13 February)

Date Brightness Start Highest point End Pass type
(mag) Time Alt. Az. Time Alt. Az. Time Alt. Az.
15 Feb 8.4 19:37:44 10° N 19:39:26 11° NNE 19:41:07 10° NNE visible
15 Feb 8.0 21:19:51 10° NNW 21:23:04 22° N 21:23:04 22° N visible
15 Feb 8.9 23:02:39 10° NW 23:03:25 14° NW 23:03:25 14° NW visible
16 Feb 8.6 19:01:49 10° N 19:02:25 10° N 19:03:02 10° NNE visible
16 Feb 7.9 20:43:40 10° NNW 20:47:52 20° NNE 20:47:52 20° NNE visible
16 Feb 8.4 22:26:17 10° NNW 22:28:13 21° NNW 22:28:13 21° NNW visible
17 Feb 8.0 20:07:30 10° NNW 20:11:19 17° NNE 20:12:42 15° NE visible
17 Feb 7.8 21:49:57 10° NNW 21:53:03 29° NNW 21:53:03 29° NNW visible
18 Feb 8.2 19:31:21 10° N 19:34:25 14° NNE 19:37:25 10° NE visible
18 Feb 7.3 21:13:40 10° NNW 21:17:55 34° NNE 21:17:55 34° NNE visible
18 Feb 8.8 22:56:57 10° NW 22:58:16 16° NW 22:58:16 16° NW visible
19 Feb 7.2 20:37:25 10° NNW 20:42:44 30° NE 20:42:49 30° NE visible
19 Feb 8.0 22:20:24 10° NW 22:23:10 28° NW 22:23:10 28° NW visible
20 Feb 7.5 20:01:12 10° NNW 20:06:02 23° NE 20:07:47 21° ENE visible
20 Feb 7.1 21:43:57 10° NNW 21:48:08 46° NNW 21:48:08 46° NNW visible
21 Feb 7.8 19:25:02 10° NNW 19:29:15 19° NNE 19:32:48 12° ENE visible
21 Feb 6.3 21:07:35 10° NNW 21:13:09 64° NNE 21:13:09 64° NNE visible
21 Feb 8.7 22:51:41 10° WNW 22:53:31 17° WNW 22:53:31 17° WNW visible
22 Feb 6.5 20:31:16 10° NNW 20:37:07 48° NE 20:38:15 42° E visible
22 Feb 7.9 22:14:49 10° NW 22:18:37 29° W 22:18:37 29° W visible
23 Feb 6.9 19:55:00 10° NNW 20:00:32 36° NE 20:03:25 22° E visible
23 Feb 6.9 21:38:10 10° NW 21:43:47 48° WSW 21:43:47 48° WSW visible
24 Feb 7.3 19:18:45 10° NNW 19:23:52 27° NE 19:28:38 10° E visible
24 Feb 6.3 21:01:39 10° NW 21:07:34 70° WSW 21:09:04 48° S visible
24 Feb 8.9 22:48:30 10° W 22:49:22 10° W 22:49:26 10° W visible
